Regional Weather Roundup
Issued by NWS

Home | Current Version | Previous Version | Text Only | Print | Product List | Glossary On
Versions: 1 2 3 4 5 6 7 8 9 10 11 12 13 14 15 16 17 18 19 20 21 22 23 24 25 26 27
000
ASUS45 KBOU 250807
RWRCO

WEATHER ROUNDUP FOR COLORADO
NATIONAL WEATHER SERVICE DENVER/BOULDER CO
200 AM MDT MON JUL 25 2016

NOTE: "FAIR" INDICATES FEW OR NO CLOUDS BELOW 12000 FEET WITH NO
SIGNIFICANT WEATHER AND/OR OBSTRUCTIONS TO VISIBILITY.

COZ001>005-013-030-031-250900-
...NORTHWEST COLORADO...

CITY           SKY/WX    TMP DP  RH WIND       PRES   REMARKS
CRAIG          FAIR      50  40  68 SW3       30.24R
HAYDEN         FAIR      59  39  47 E10       30.26S
MEEKER         FAIR      59  40  49 E9        30.26R
MOUNT WERNER   NOT AVBL
STEAMBOAT SPGS FAIR      53  41  65 CALM      30.30R
WALDEN         FAIR      45  36  70 SE8       30.42R
$$

COZ006>008-011-250900-
...WEST CENTRAL VALLEYS...

CITY           SKY/WX    TMP DP  RH WIND       PRES   REMARKS
GRAND JUNCTION FAIR      79  41  25 E16       30.09R
MONTROSE       FAIR      68  40  35 E8        30.20R
EAGLE          FAIR      57  41  54 SE5       30.33R
RIFLE          FAIR      63  40  42 E7        30.19R
DELTA          FAIR      69  43  38 NE10      30.15S
NUCLA          FAIR     N/A N/A N/A SE9       30.26S
$$

COZ017>023-064>068-250900-
...SOUTHWEST COLORADO...

CITY           SKY/WX    TMP DP  RH WIND       PRES   REMARKS
DURANGO        FAIR      61  48  62 CALM      30.32S
CORTEZ         FAIR      70  46  42 CALM      30.23R
PAGOSA SPRINGS FAIR      58  40  52 CALM      30.42S
TELLURIDE      FAIR      59  36  41 CALM      30.51S
WOLF CREEK PAS FAIR      46  39  76 SW16      30.75R
$$

COZ009-010-012-014-032>034-037-058>063-250900-
...CENTRAL COLORADO...

CITY           SKY/WX    TMP DP  RH WIND       PRES   REMARKS
ASPEN          FAIR      53  40  61 SW6       30.37R
BUENA VISTA    FAIR      52  46  80 W3        30.45R
COPPER MTN     FAIR      54  32  43 S15       30.72S
BERTHOUD PASS  FAIR      45  32  61 W10       30.75S
COTTONWOOD PAS FAIR      59  39  47 W3        30.58S
GUNNISON       FAIR      52  37  58 N6        30.42S
KREMMLING      FAIR      50  45  81 CALM      30.40R
LEADVILLE      FAIR      49  35  58 CALM      30.57R
MONARCH PASS   FAIR      46  39  76 NE15      30.82S
SALIDA         FAIR      62  49  63 SW7       30.48S
SUNLIGHT       FAIR      61  32  33 CALM      30.63S
WILKERSON PASS FAIR      50  37  62 W6        30.69F
$$

COZ069>075-250900-
...SAN LUIS VALLEY/SANGRE DE CRISTO MOUNTAINS...

CITY           SKY/WX    TMP DP  RH WIND       PRES   REMARKS
ALAMOSA        FAIR      58  46  64 SE8       30.36R
LA VETA PASS   FAIR      48  45  87 N3        30.59F
SAGUACHE       FAIR      61  45  55 NW5       30.41R
$$

COZ035-036-038>040-250900-
...NORTHERN COLORADO FRONT RANGE...

CITY           SKY/WX    TMP DP  RH WIND       PRES   REMARKS
DENVER INTL AP FAIR      60  55  83 S13       30.24F
DMNS CITY PARK   N/A     61  56  84 NW1       30.24F
AURORA         PTCLDY    59  55  86 S12       30.27F
FRONT RANGE AP NOT AVBL
ERIE MUNI ARPT FAIR      59  55  85 CALM      30.24F
BOULDER MUN AP FAIR      61  55  82 CALM      30.24F
CENTENNIAL     FAIR      59  53  80 S8        30.27F
BROOMFIELD     FAIR      61  55  82 NW8       30.26F
LONGMONT       FAIR      61  56  84 CALM      30.25F
$$

COZ041-046-047-076>085-087-088-250900-
...PIKES PEAK/PALMER DIVIDE AND SOUTHERN FOOTHILLS...

CITY           SKY/WX    TMP DP  RH WIND       PRES   REMARKS
COLO. SPRINGS  FAIR      58  53  84 S8        30.36R
A. F. ACADEMY  FAIR      56  52  84 S6        30.36R
SCHRIEVER AFB  NOT AVBL
ELLICOTT       FAIR     N/A N/A N/A E9        30.33R
FALCON         FAIR      55  53  95 S3        30.39R
FORT CARSON    FAIR      60  56  84 S6        30.33S
LIMON          FAIR      56  54  93 S6        30.28R
MONUMENT HILL  FAIR      52  50  93 S6        30.38S
TRINIDAD       NOT AVBL
$$

COZ042>045-048>051-090-091-250900-
...NORTHEAST COLORADO...

CITY           SKY/WX    TMP DP  RH WIND       PRES   REMARKS
GREELEY ARPT   FAIR      61  55  82 CALM      30.24F
AKRON          FAIR      62  55  77 S12       30.20F
BURLINGTON     FAIR      61  57  87 S3        30.17F
WRAY           NOT AVBL
STERLING       FAIR      61  54  77 N3        30.19R
HOLYOKE        FAIR      61  55  82 CALM      30.18S
FORT MORGAN    FAIR      58  54  88 W5        30.22F
$$

COZ086-089-092>099-250900-
...SOUTHEAST COLORADO...

CITY           SKY/WX    TMP DP  RH WIND       PRES   REMARKS
PUEBLO         FAIR      68  58  70 N6        30.27S
LA JUNTA       FAIR      65  61  87 N6        30.22F
LAMAR          FAIR      64  60  87 SE6       30.18S
SPRINGFIELD      N/A     64  57  78 NE3       30.20S
$$




USA.gov is the U.S. government's official web portal to all federal, state and local government web resources and services.